Regional Weather Roundup
Issued by NWS

Home | Current Version | Previous Version | Text Only | Print | Product List | Glossary On
Versions: 1 2 3 4 5 6 7 8 9 10 11 12 13 14 15 16 17 18 19 20 21 22 23 24 25 26 27 28 29 30 31 32 33 34 35 36 37 38 39 40 41 42 43 44 45 46 47 48 49 50
000
ASUS44 KJAN 221310
RWRMS

MISSISSIPPI HOURLY WEATHER ROUNDUP
NATIONAL WEATHER SERVICE JACKSON MS
800 AM CDT TUE JUL 22 2014

NOTE: "FAIR: INDICATES FEW OR NO CLOUDS BELOW 12,000 FEET WITH NO
SIGNIFICANT WEATHER AND/OR OBSTRUCTIONS TO VISIBILITY.

MSZ001>002-007>008-010>013-018>021-025>028-034>036-221400-
NORTHWEST MISSISSIPPI

CITY           SKY/WX    TMP DP  RH WIND       PRES   REMARKS
CLARKSDALE     FAIR      73  73 100 CALM      30.09S
CLEVELAND      FAIR      74  72  92 NE3       30.08R
GREENWOOD      SUNNY     74  70  87 NE3       30.07R FOG
GREENVILLE     SUNNY     74  70  87 CALM      30.07R
GRENADA        FAIR      73  68  83 CALM      30.08R
OLIVE BRANCH   SUNNY     72  72 100 N5        30.10S
OXFORD         FAIR      72  68  88 CALM      30.10S FOG
TUNICA         SUNNY     73  70  88 NE3       30.09F FOG
$$

MSZ003>006-009-014>017-022>024-029>033-037>039-221400-
NORTHEAST MISSISSIPPI

CITY           SKY/WX    TMP DP  RH WIND       PRES   REMARKS
BELMONT        PTSUNNY   73  72  95 E3        30.10S
COLUMBUS AFB   SUNNY     73  73 100 N6        30.08R
CORINTH        FAIR      73  68  83 CALM      30.10R HAZE
GOLDN TRIANGLE SUNNY     75  70  83 N5        30.09R FOG
STARKVILLE     FAIR      72  70  94 CALM      30.08S FOG
TUPELO         SUNNY     75  70  84 E6        30.08S
$$

MSZ040-058-221400-
CENTRAL MISSISSIPPI

CITY           SKY/WX    TMP DP  RH WIND       PRES   REMARKS
JACKSON INTL   MOSUNNY   73  70  90 CALM      30.06R
JACKSON HAWKNS SUNNY     73  68  84 CALM      30.06R
MERIDIAN KEY   CLOUDY    75  72  90 NE3       30.06R
MERIDIAN NAS   PTSUNNY   75  72  90 SE5       30.07R
RAYMOND        FAIR      72  66  83 CALM      30.06R
VICKSBURG      SUNNY     76  72  87 CALM      30.06R
$$

MSZ059>079-221400-
SOUTH MISSISSIPPI

CITY           SKY/WX    TMP DP  RH WIND       PRES   REMARKS
BROOKHAVEN     FAIR      72  70  94 CALM      30.07R FOG
COLUMBIA       FAIR      72  72 100 CALM      30.03S
HATTIESBURG    CLOUDY    78  72  81 NE7       30.05R
MCCOMB         SUNNY     73  69  87 N3        30.05R
NATCHEZ        SUNNY     72  70  94 CALM      30.06S
PINE BELT      CLOUDY    75  70  83 NE7       30.06R
$$

MSZ080>082-221400-
COASTAL MISSISSIPPI

CITY           SKY/WX    TMP DP  RH WIND       PRES   REMARKS
BAY ST LOUIS   SUNNY    N/A N/A N/A CALM      30.04R
BILOXI         PTSUNNY   79  71  77 VRB2      30.03R
PASCAGOULA     PTSUNNY   78  73  84 CALM      30.03R
GULFPORT       PTSUNNY   80  71  74 CALM      30.02S
$$


USA.gov is the U.S. government's official web portal to all federal, state and local government web resources and services.